Location: Edmonton
(53.5500°N, 113.5000°W)
Time: 05:11:30
(UTC-07:00)

N. Korean satellite - Pass Details

Date: 26 October 2019
Orbit: 456 x 506 km, 97.2° (Epoch: 13 November)

Event Time Altitude Azimuth Distance (km) Brightness Sun altitude
Rises 19:26:50 0° 201° (SSW) 2,477 10.5 -11.4°
Reaches altitude 10° 19:29:16 10° 219° (SW) 1,615 9.9 -11.8°
Maximum altitude 19:31:52 20° 268° (W) 1,151 9.6 -12.2°
Drops below altitude 10° 19:34:31 10° 317° (NW) 1,644 9.8 -12.6°
Sets 19:37:01 0° 335° (NNW) 2,538 10.5 -12.9°
